Simultaneous Nadir Overpasses (SNOs) Predictions

Prediction of SNOs between AQUA and GOES-15 Satellite Orbit:

Table of predicted SNOs for the next 14.0 days since TLE Epoch: 4/28/2012
Index Date Time (AQUA) AQUA Lat,Lon GOES-15 Lat,Lon Distance(km) Time Diff (sec)
1 04/29/2012 10:38:35 0.15,-135.65 0.03,-135.11 61.80 80
2 05/01/2012 10:26:23 -0.51,-132.69 0.03,-135.16 281.17 80
3 05/01/2012 22:47:46 -0.60,-137.88 -0.02,-135.18 307.56 80
4 05/03/2012 22:35:35 0.06,-134.93 -0.02,-135.23 34.57 80
5 05/05/2012 22:23:22 0.68,-131.96 -0.01,-135.27 375.78 80
6 05/06/2012 10:44:37 0.37,-137.12 -0.00,-135.27 209.94 80
7 05/08/2012 10:32:24 -0.25,-134.16 -0.00,-135.30 130.40 80
8 05/08/2012 22:53:48 -0.84,-139.35 0.02,-135.31 459.11 80
9 05/10/2012 10:20:12 -0.87,-131.19 0.00,-135.33 470.46 80
10 05/10/2012 22:41:35 -0.21,-136.39 0.01,-135.34 119.04 80




NCC Satellite Simultaneous Nadir Overpasses (SNOs) Prediction Service
